CW6734 Weather Reports


Display with metric or nautical units.
time (UTC)temp
F
wind
direction
speed
MPH
gust
MPH
rain 1hr
in
rain 24hr
in
rain mn
in
humidity
%
barometer
mb
20180116094054 16 293 1.0 3.0 0.00 0.00 0.00 89 1031.0
20180116093438 17 313 1.0 2.0 0.00 0.00 0.00 90 1030.8
20180116091318 17 304 1.0 7.0 0.00 0.00 0.00 90 1030.7
20180116091010 17 286 2.0 7.0 0.00 0.00 0.00 89 1030.7
20180116090408 18 318 2.0 7.0 0.00 0.00 0.00 89 1030.5
20180116085751 19 296 2.0 7.0 0.00 0.00 0.00 89 1030.4
20180116085453 20 313 3.0 7.0 0.00 0.00 0.00 89 1030.2
20180116084843 22 321 2.0 7.0 0.00 0.00 0.00 91 1030.2
20180116084240 24 259 0.0 7.0 0.00 0.00 0.00 94 1030.1
20180116083028 24 244 0.0 1.0 0.00 0.00 0.00 94 1029.6
20180116082424 24 219 0.0 1.0 0.00 0.00 0.00 94 1029.7
20180116081807 24 239 0.0 2.0 0.00 0.00 0.00 94 1029.6
20180116080857 23 195 0.0 1.0 0.00 0.00 0.00 94 1029.6
20180116080237 23 288 0.0 0.0 0.00 0.00 0.00 94 1029.7
20180116075931 23 288 0.0 0.0 0.00 0.00 0.00 94 1029.6
20180116075308 23 288 0.0 0.0 0.00 0.00 0.00 94 1029.4
20180116074354 23 288 0.0 0.0 0.00 0.00 0.00 94 1029.5
20180116074042 23 288 0.0 0.0 0.00 0.00 0.00 94 1029.4
20180116073744 23 288 0.0 0.0 0.00 0.00 0.00 94 1029.2
20180116073141 23 288 0.0 0.0 0.00 0.00 0.00 94 1029.5
20180116072219 23 288 0.0 0.0 0.00 0.00 0.00 93 1029.4
20180116071908 23 288 0.0 0.0 0.00 0.00 0.00 93 1029.4
20180116071601 23 288 0.0 0.0 0.00 0.00 0.00 93 1029.3
20180116071256 23 288 0.0 0.0 0.00 0.00 0.00 93 1029.2
20180116065733 24 288 0.0 0.0 0.00 0.00 0.00 93 1029.3
20180116065436 24 288 0.0 0.0 0.00 0.00 0.00 93 1029.3
20180116064827 24 288 0.0 0.0 0.00 0.00 0.00 93 1029.3
20180116063910 24 288 0.0 0.0 0.00 0.00 0.00 93 1029.1
20180116063257 24 288 0.0 0.0 0.00 0.00 0.00 93 1029.2
20180116062337 24 288 0.0 0.0 0.00 0.00 0.00 93 1029.3
20180116061420 24 288 0.0 0.0 0.00 0.00 0.00 93 1029.3
20180116060810 24 288 0.0 0.0 0.00 0.00 0.00 93 1029.2
20180116060511 24 288 0.0 0.0 0.00 0.00 0.00 93 1029.2
20180116060201 24 288 0.0 0.0 0.00 0.00 0.00 93 1029.2
20180116055300 24 288 0.0 0.0 0.00 0.00 0.00 93 1029.3
20180116054955 24 288 0.0 0.0 0.00 0.00 0.00 93 1029.3
20180116054644 24 288 0.0 0.0 0.00 0.00 0.00 93 1029.2
20180116052754 24 288 0.0 0.0 0.00 0.00 0.00 93 1029.4
20180116051533 24 288 0.0 3.0 0.00 0.00 0.00 93 1029.4
20180116051230 24 288 0.0 3.0 0.00 0.00 0.00 93 1029.3
20180116050932 24 288 1.0 3.0 0.00 0.00 0.00 93 1029.3
20180116050622 24 290 1.0 3.0 0.00 0.00 0.00 93 1029.3
20180116050311 24 292 1.0 3.0 0.00 0.00 0.00 93 1029.4
20180116050009 25 306 0.0 3.0 0.00 0.00 0.00 93 1029.3
20180116045700 25 306 1.0 2.0 0.00 0.00 0.00 93 1029.2
20180116045358 25 282 0.0 2.0 0.00 0.00 0.00 93 1029.4
20180116045046 25 280 0.0 2.0 0.00 0.00 0.00 93 1029.2
20180116044428 25 277 0.0 2.0 0.00 0.00 0.00 93 1029.3
20180116044120 25 277 0.0 2.0 0.00 0.00 0.00 93 1029.3
20180116043508 25 277 0.0 2.0 0.00 0.00 0.00 94 1029.1
20180116043205 25 278 0.0 2.0 0.00 0.00 0.00 94 1029.2
20180116042557 25 275 0.0 2.0 0.00 0.00 0.00 93 1029.3
20180116042259 25 275 0.0 2.0 0.00 0.00 0.00 93 1029.4
20180116042002 25 275 0.0 2.0 0.00 0.00 0.00 93 1029.3
20180116041655 25 275 0.0 2.0 0.00 0.00 0.00 93 1029.3
20180116041354 25 284 0.0 2.0 0.00 0.00 0.00 93 1029.3
20180116040747 25 284 0.0 2.0 0.00 0.00 0.00 93 1029.3
20180116035828 25 275 0.0 2.0 0.00 0.00 0.00 93 1029.3
20180116035207 25 271 0.0 2.0 0.00 0.00 0.00 93 1029.3
20180116034245 25 283 1.0 6.0 0.00 0.00 0.00 93 1029.2
20180116033335 25 267 0.0 6.0 0.00 0.00 0.00 93 1029.1
20180116032731 25 296 0.0 4.0 0.00 0.00 0.00 93 1028.9
20180116032425 25 252 0.0 4.0 0.00 0.00 0.00 93 1028.7
20180116032123 25 296 0.0 4.0 0.00 0.00 0.00 93 1028.7
20180116031521 25 273 1.0 4.0 0.00 0.00 0.00 93 1029.0
20180116031213 25 285 1.0 4.0 0.00 0.00 0.00 93 1029.0
20180116030907 25 256 1.0 3.0 0.00 0.00 0.00 94 1029.0
20180116030255 25 242 0.0 3.0 0.00 0.00 0.00 93 1028.9
20180116024421 25 277 1.0 5.0 0.00 0.00 0.00 94 1028.8
20180116023816 25 253 1.0 4.0 0.00 0.00 0.00 94 1028.8
20180116022552 25 298 0.0 3.0 0.00 0.00 0.00 94 1028.7
20180116021936 25 261 0.0 3.0 0.00 0.00 0.00 94 1028.7
20180116021632 25 286 0.0 3.0 0.00 0.00 0.00 94 1028.6
20180116021333 25 249 0.0 3.0 0.00 0.00 0.00 94 1028.7
20180116020722 25 268 0.0 3.0 0.00 0.00 0.00 94 1028.5
20180116014855 25 261 0.0 3.0 0.00 0.00 0.00 94 1028.8
20180116014549 25 274 0.0 3.0 0.00 0.00 0.00 94 1028.8
20180116014248 25 265 0.0 0.0 0.00 0.00 0.00 94 1028.8
20180116013934 25 266 0.0 0.0 0.00 0.00 0.00 94 1028.6
20180116013310 25 258 0.0 0.0 0.00 0.00 0.00 94 1028.7
20180116013003 25 258 0.0 1.0 0.00 0.00 0.00 94 1028.6
20180116012702 25 258 0.0 0.0 0.00 0.00 0.00 94 1028.5
20180116012405 25 258 0.0 0.0 0.00 0.00 0.00 94 1028.5
20180116012108 25 258 0.0 0.0 0.00 0.00 0.00 94 1028.5
20180116011759 25 258 0.0 0.0 0.00 0.00 0.00 94 1028.5
20180116011500 25 258 0.0 0.0 0.00 0.00 0.00 94 1028.4
20180116011152 25 258 0.0 0.0 0.00 0.00 0.00 94 1028.4
20180116010841 25 258 0.0 1.0 0.00 0.00 0.00 94 1028.6
20180116005623 25 258 0.0 0.0 0.00 0.00 0.00 94 1028.6
20180116005007 25 258 0.0 1.0 0.00 0.00 0.00 94 1028.5
20180116003741 25 208 0.0 0.0 0.00 0.00 0.00 94 1028.4
20180116003128 25 208 0.0 0.0 0.00 0.00 0.00 94 1028.5
20180116002818 25 208 0.0 0.0 0.00 0.00 0.00 94 1028.4
20180116002200 25 208 0.0 0.0 0.00 0.00 0.00 94 1028.4
20180116001602 25 208 0.0 0.0 0.00 0.00 0.00 94 1028.2
20180116001250 25 208 0.0 0.0 0.00 0.00 0.00 94 1028.4
20180116000350 25 208 0.0 0.0 0.00 0.00 0.00 93 1028.4
20180115235741 25 208 0.0 0.0 0.00 0.00 0.00 93 1028.1
20180115234925 25 208 0.0 1.0 0.00 0.00 0.00 93 1028.2
20180115233539 25 209 0.0 1.0 0.00 0.00 0.00 93 1028.3
20180115232921 25 208 0.0 1.0 0.00 0.00 0.00 93 1028.4
20180115232308 25 209 0.0 1.0 0.00 0.00 0.00 93 1028.5
20180115231700 25 173 0.0 0.0 0.00 0.00 0.00 93 1028.4
20180115231400 25 173 0.0 0.0 0.00 0.00 0.00 93 1028.4
20180115231051 25 173 0.0 0.0 0.00 0.00 0.00 93 1028.4
20180115225837 25 173 0.0 0.0 0.00 0.00 0.00 93 1028.4
20180115225234 25 173 0.0 0.0 0.00 0.00 0.00 93 1028.4
20180115224932 25 173 0.0 0.0 0.00 0.00 0.00 93 1028.4
20180115224628 25 173 0.0 0.0 0.00 0.00 0.00 93 1028.3
20180115224015 25 169 0.0 2.0 0.00 0.00 0.00 93 1028.3
20180115223711 25 169 0.0 2.0 0.00 0.00 0.00 93 1028.2
20180115222144 25 154 0.0 2.0 0.00 0.00 0.00 93 1027.9
20180115221838 25 184 0.0 2.0 0.00 0.00 0.00 93 1028.0
20180115221233 25 192 0.0 0.0 0.00 0.00 0.00 93 1028.1
20180115220924 25 193 0.0 2.0 0.00 0.00 0.00 92 1027.7
20180115220616 25 194 0.0 2.0 0.00 0.00 0.00 93 1027.8
20180115220314 25 193 0.0 2.0 0.00 0.00 0.00 93 1027.9
20180115220006 25 182 0.0 2.0 0.00 0.00 0.00 93 1027.8
20180115215357 25 226 1.0 4.0 0.00 0.00 0.00 92 1027.7
20180115214741 25 218 0.0 4.0 0.00 0.00 0.00 93 1027.6
20180115213814 25 223 1.0 6.0 0.00 0.00 0.00 92 1027.5
20180115212545 25 196 1.0 6.0 0.00 0.00 0.00 92 1027.2
20180115211311 25 166 1.0 5.0 0.00 0.00 0.00 92 1027.1
20180115211014 25 173 1.0 5.0 0.00 0.00 0.00 92 1027.2
20180115210703 25 162 0.0 4.0 0.00 0.00 0.00 92 1027.1
20180115210352 25 163 1.0 5.0 0.00 0.00 0.00 92 1027.1
20180115205756 25 186 1.0 5.0 0.00 0.00 0.00 92 1027.2
20180115205141 25 195 1.0 5.0 0.00 0.00 0.00 92 1027.3
20180115204536 25 169 1.0 5.0 0.00 0.00 0.00 92 1027.2
20180115204227 25 150 1.0 5.0 0.00 0.00 0.00 92 1027.2
20180115203912 25 185 1.0 5.0 0.00 0.00 0.00 92 1027.3
20180115203318 25 178 1.0 5.0 0.00 0.00 0.00 92 1027.3
20180115202653 25 198 2.0 5.0 0.00 0.00 0.00 92 1027.3
20180115201749 25 180 1.0 5.0 0.00 0.00 0.00 92 1027.4
20180115201445 24 185 2.0 5.0 0.00 0.00 0.00 91 1027.4
20180115201141 24 139 2.0 5.0 0.00 0.00 0.00 91 1027.3
20180115200837 24 181 1.0 5.0 0.00 0.00 0.00 91 1027.4
20180115200236 24 164 1.0 7.0 0.00 0.00 0.00 91 1027.3
20180115195628 24 210 2.0 7.0 0.00 0.00 0.00 91 1027.4
20180115195331 24 180 2.0 7.0 0.00 0.00 0.00 91 1027.3
20180115194716 25 165 1.0 7.0 0.00 0.00 0.00 91 1027.4
20180115194419 25 184 1.0 6.0 0.00 0.00 0.00 91 1027.5
20180115194122 24 205 2.0 6.0 0.00 0.00 0.00 91 1027.5
20180115193815 24 290 2.0 8.0 0.00 0.00 0.00 91 1027.4
20180115193505 24 170 2.0 8.0 0.00 0.00 0.00 91 1027.3
20180115193153 24 181 2.0 8.0 0.00 0.00 0.00 91 1027.4
20180115192850 24 198 2.0 8.0 0.00 0.00 0.00 91 1027.6
20180115192540 24 177 2.0 8.0 0.00 0.00 0.00 91 1027.6
20180115192241 24 231 2.0 8.0 0.00 0.00 0.00 90 1027.7
20180115191927 24 215 2.0 8.0 0.00 0.00 0.00 90 1027.7
20180115191624 24 152 1.0 7.0 0.00 0.00 0.00 91 1027.8
20180115190046 24 252 2.0 7.0 0.00 0.00 0.00 90 1027.7
20180115184539 24 171 1.0 7.0 0.00 0.00 0.00 90 1027.9
20180115184227 23 182 2.0 7.0 0.00 0.00 0.00 90 1027.8
20180115183306 23 166 2.0 5.0 0.00 0.00 0.00 89 1028.0
20180115182957 24 165 1.0 5.0 0.00 0.00 0.00 88 1028.0
20180115182033 24 221 1.0 4.0 0.00 0.00 0.00 88 1028.5
20180115181726 24 265 0.0 3.0 0.00 0.00 0.00 88 1028.5
20180115181413 24 229 1.0 5.0 0.00 0.00 0.00 88 1028.8
20180115181104 23 190 1.0 5.0 0.00 0.01 0.00 88 1028.7
20180115180804 23 184 1.0 5.0 0.00 0.01 0.00 87 1028.7
20180115180507 24 182 1.0 5.0 0.00 0.01 0.00 87 1028.8
20180115175546 24 196 1.0 5.0 0.00 0.01 0.00 87 1029.0
20180115174925 23 188 1.0 4.0 0.00 0.01 0.00 87 1029.3
20180115174323 23 207 1.0 4.0 0.00 0.01 0.00 87 1029.3
20180115173357 23 194 2.0 6.0 0.00 0.01 0.00 86 1029.5
20180115172445 23 174 1.0 6.0 0.00 0.01 0.00 86 1029.6
20180115172131 23 185 2.0 6.0 0.00 0.01 0.00 86 1029.6
20180115171516 22 242 2.0 7.0 0.00 0.01 0.00 85 1029.8
20180115171209 22 205 2.0 7.0 0.00 0.01 0.00 86 1029.8
20180115170602 22 189 2.0 7.0 0.00 0.01 0.00 86 1029.8
20180115170256 22 232 2.0 7.0 0.00 0.01 0.00 86 1029.8
20180115165646 22 182 2.0 5.0 0.00 0.01 0.00 86 1029.9
20180115163817 21 144 2.0 5.0 0.00 0.01 0.00 85 1030.3
20180115163508 21 175 1.0 5.0 0.00 0.01 0.00 85 1030.5
20180115162848 21 180 1.0 7.0 0.00 0.01 0.00 85 1030.5
20180115161947 20 188 2.0 8.0 0.00 0.01 0.00 85 1030.7
20180115161644 20 205 2.0 8.0 0.00 0.01 0.00 85 1030.8
20180115160721 19 173 2.0 8.0 0.00 0.01 0.00 85 1030.8
20180115160107 19 134 2.0 6.0 0.00 0.01 0.00 85 1030.9
20180115155810 19 179 3.0 9.0 0.00 0.01 0.00 85 1030.9
20180115155151 19 136 2.0 9.0 0.00 0.01 0.00 85 1031.0
20180115154853 19 184 2.0 9.0 0.00 0.01 0.00 85 1031.1
20180115154541 18 195 2.0 9.0 0.00 0.01 0.00 86 1031.1
20180115154227 18 248 2.0 9.0 0.00 0.01 0.00 85 1031.1
20180115153930 18 138 2.0 9.0 0.00 0.01 0.00 86 1031.1
20180115153623 18 134 2.0 6.0 0.00 0.01 0.00 86 1031.1
20180115153322 17 153 2.0 6.0 0.00 0.01 0.00 86 1031.2
20180115153023 17 115 2.0 6.0 0.00 0.01 0.00 86 1031.3
20180115152428 17 161 2.0 6.0 0.00 0.01 0.00 85 1031.3
20180115152120 17 135 2.0 6.0 0.00 0.01 0.00 85 1031.3
20180115151519 17 202 1.0 6.0 0.00 0.01 0.00 86 1031.3
20180115151210 17 171 1.0 4.0 0.00 0.01 0.00 86 1031.2
20180115150912 17 165 1.0 4.0 0.00 0.01 0.00 87 1031.3
20180115150255 16 153 1.0 6.0 0.00 0.01 0.00 87 1031.2
20180115145958 15 157 2.0 6.0 0.00 0.01 0.00 87 1031.4
20180115145334 15 153 2.0 6.0 0.00 0.01 0.00 87 1031.5
20180115143747 13 148 2.0 5.0 0.00 0.01 0.00 88 1031.4
20180115143132 13 157 1.0 4.0 0.00 0.01 0.00 88 1031.4
20180115142818 13 117 1.0 4.0 0.00 0.01 0.00 88 1031.4
20180115142200 13 171 1.0 4.0 0.00 0.01 0.00 88 1031.5
20180115141856 12 167 1.0 3.0 0.00 0.01 0.00 88 1031.5
20180115141544 12 124 1.0 3.0 0.00 0.01 0.00 88 1031.6
20180115140937 12 125 1.0 3.0 0.00 0.01 0.00 89 1031.7
20180115140632 12 148 1.0 3.0 0.00 0.01 0.00 88 1031.7
20180115140319 12 132 0.0 3.0 0.00 0.01 0.00 88 1031.8
20180115140020 12 154 0.0 3.0 0.00 0.01 0.00 88 1031.9
20180115135710 11 150 0.0 3.0 0.00 0.01 0.00 88 1031.9
20180115135358 11 150 0.0 3.0 0.00 0.01 0.00 88 1031.9
20180115134747 11 133 0.0 3.0 0.00 0.01 0.00 88 1032.0
20180115134446 11 153 0.0 3.0 0.00 0.01 0.00 88 1031.9
20180115134142 11 153 0.0 3.0 0.00 0.01 0.00 88 1032.0
20180115133842 11 106 0.0 3.0 0.00 0.01 0.00 88 1031.9
20180115133219 11 159 1.0 3.0 0.00 0.01 0.00 88 1031.9
20180115132907 11 161 1.0 3.0 0.00 0.01 0.00 88 1031.9
20180115132559 11 171 1.0 3.0 0.00 0.01 0.00 88 1031.9
20180115131938 10 182 0.0 3.0 0.00 0.01 0.00 88 1032.0
20180115131641 10 138 0.0 3.0 0.00 0.01 0.00 87 1032.0
20180115131338 10 167 0.0 3.0 0.00 0.01 0.00 87 1032.0
20180115130421 10 157 0.0 1.0 0.00 0.01 0.00 87 1032.0
20180115130113 10 162 0.0 1.0 0.00 0.01 0.00 87 1032.0
20180115125803 10 162 0.0 1.0 0.00 0.01 0.00 87 1031.9
20180115125504 10 162 0.0 1.0 0.00 0.01 0.00 87 1031.9
20180115123936 10 145 0.0 2.0 0.00 0.01 0.00 86 1031.9
20180115123316 10 144 1.0 2.0 0.00 0.01 0.00 86 1031.9
20180115123018 10 144 0.0 2.0 0.00 0.01 0.00 85 1031.9
20180115122720 10 144 0.0 2.0 0.00 0.01 0.00 85 1031.9
20180115122056 10 144 0.0 2.0 0.00 0.01 0.00 85 1031.9
20180115121756 10 126 0.0 0.0 0.00 0.01 0.00 85 1032.0
20180115120859 10 128 0.0 3.0 0.00 0.01 0.00 84 1031.9
20180115120302 10 140 0.0 2.0 0.00 0.01 0.00 84 1031.8
20180115115955 10 119 0.0 1.0 0.00 0.01 0.00 84 1031.8
20180115115651 10 121 0.0 1.0 0.00 0.01 0.00 84 1031.8
20180115115037 10 121 0.0 0.0 0.00 0.01 0.00 83 1032.0
20180115114434 10 121 0.0 0.0 0.00 0.01 0.00 83 1032.1
20180115114121 10 121 0.0 0.0 0.00 0.01 0.00 83 1032.2
20180115113202 10 121 0.0 1.0 0.00 0.01 0.00 83 1032.3
20180115112252 10 121 0.0 1.0 0.00 0.01 0.00 83 1032.4
20180115111648 10 121 0.0 1.0 0.00 0.01 0.00 82 1032.4
20180115111336 10 121 0.0 0.0 0.00 0.01 0.00 82 1032.5
20180115111035 10 121 0.0 0.0 0.00 0.01 0.00 82 1032.5
20180115110725 10 121 0.0 0.0 0.00 0.01 0.00 82 1032.4
20180115110425 10 121 0.0 0.0 0.00 0.01 0.00 83 1032.4
20180115105816 10 121 0.0 0.0 0.00 0.01 0.00 83 1032.5
20180115104900 10 121 0.0 0.0 0.00 0.01 0.00 83 1032.5
20180115103931 10 138 0.0 1.0 0.00 0.01 0.00 83 1032.6
20180115103334 10 138 0.0 1.0 0.00 0.01 0.00 82 1032.6
20180115103030 10 138 0.0 2.0 0.00 0.01 0.00 83 1032.7
20180115102734 10 116 0.0 1.0 0.00 0.01 0.00 83 1032.6
20180115102115 9 116 0.0 0.0 0.00 0.01 0.00 83 1032.6
20180115101808 9 116 0.0 0.0 0.00 0.01 0.00 83 1032.6
20180115100842 9 116 0.0 0.0 0.00 0.01 0.00 83 1032.7
20180115100536 9 116 0.0 0.0 0.00 0.01 0.00 83 1032.8
20180115100228 9 116 0.0 0.0 0.00 0.01 0.00 83 1032.8
20180115095929 9 116 0.0 0.0 0.00 0.01 0.00 83 1032.8
20180115095616 9 116 0.0 0.0 0.00 0.01 0.00 84 1032.8
20180115095318 9 116 0.0 0.0 0.00 0.01 0.00 84 1032.8
20180115095016 9 116 0.0 0.0 0.00 0.01 0.00 84 1032.9